Location: Eaton Estates
(41.3089°N, 82.0057°W)
Time: 08:19:25
(UTC+00:00)

SJ 16-02 - Pass Details

Date: 17 June 2021
Orbit: 606 x 616 km, 75.0° (Epoch: 28 July)

Event Time Altitude Azimuth Distance (km) Brightness Sun altitude
Rises 06:18:37 0° 339° (NNW) 2,872 5.6 -24.3°
Reaches altitude 10° 06:20:53 10° 336° (NNW) 1,963 4.6 -24.2°
Enters shadow 06:24:50 62° 288° (WNW) 684 1.5 -24.0°
